| time (UTC) | temp F | wind direction | speed knots | gust knots | rain 1hr in | rain 24hr in | rain mn in | humidity % | barometer mb |
| 20260507080035 | 66 | 1.7 | 4.3 | 0.00 | 0.00 | 0.00 | 99 | 1015.7 | |
| 20260507075528 | 65 | 0.9 | 2.6 | 0.00 | 0.00 | 0.00 | 99 | 1015.8 | |
| 20260507075022 | 65 | 0.9 | 3.5 | 0.00 | 0.00 | 0.00 | 99 | 1015.8 | |
| 20260507074517 | 65 | 1.7 | 5.2 | 0.00 | 0.00 | 0.00 | 99 | 1015.7 | |
| 20260507074011 | 62 | 0.0 | 0.9 | 0.00 | 0.00 | 0.00 | 99 | 1015.8 | |
| 20260507073514 | 64 | 0.0 | 0.9 | 0.00 | 0.00 | 0.00 | 99 | 1015.8 | |
| 20260507072959 | 66 | 0.0 | 0.0 | 0.00 | 0.00 | 0.00 | 99 | 1015.8 | |
| 20260507072453 | 65 | 0.0 | 0.0 | 0.00 | 0.00 | 0.00 | 99 | 1015.9 | |
| 20260507071947 | 65 | 0.0 | 0.0 | 0.00 | 0.00 | 0.00 | 99 | 1015.9 | |
| 20260507071441 | 66 | 0.0 | 0.0 | 0.00 | 0.00 | 0.00 | 99 | 1015.9 | |
| 20260507070935 | 67 | 0.0 | 0.0 | 0.00 | 0.00 | 0.00 | 99 | 1015.9 | |
| 20260507070437 | 65 | 0.0 | 0.0 | 0.00 | 0.00 | 0.00 | 99 | 1016.0 | |
| 20260507065923 | 64 | 0.0 | 0.0 | 0.00 | 0.00 | 0.00 | 99 | 1015.9 | |
| 20260507065416 | 66 | 0.0 | 0.0 | 0.00 | 0.00 | 0.00 | 99 | 1015.9 | |
| 20260507064910 | 64 | 0.0 | 0.0 | 0.00 | 0.00 | 0.00 | 99 | 1015.9 | |
| 20260507064404 | 62 | 0.0 | 0.0 | 0.00 | 0.00 | 0.00 | 99 | 1015.9 | |
| 20260507063858 | 62 | 0.0 | 0.0 | 0.00 | 0.00 | 0.00 | 99 | 1015.9 | |
| 20260507063401 | 66 | 0.0 | 0.0 | 0.00 | 0.00 | 0.00 | 99 | 1015.8 | |
| 20260507062846 | 65 | 0.0 | 0.0 | 0.00 | 0.00 | 0.00 | 99 | 1015.8 | |
| 20260507062340 | 63 | 0.0 | 0.0 | 0.00 | 0.00 | 0.00 | 99 | 1015.8 | |
| 20260507061835 | 62 | 0.0 | 0.0 | 0.00 | 0.00 | 0.00 | 99 | 1015.8 | |
| 20260507061329 | 58 | 0.0 | 0.0 | 0.00 | 0.00 | 0.00 | 99 | 1015.9 | |
| 20260507060326 | 69 | 0.0 | 0.0 | 0.00 | 0.00 | 0.00 | 99 | 1015.9 | |
| 20260507055810 | 68 | 0.0 | 0.0 | 0.00 | 0.00 | 0.00 | 99 | 1016.0 | |
| 20260507055306 | 67 | 0.0 | 0.0 | 0.00 | 0.00 | 0.00 | 99 | 1016.0 | |
| 20260507054758 | 65 | 0.0 | 0.0 | 0.00 | 0.00 | 0.00 | 99 | 1015.9 | |
| 20260507054253 | 61 | 0.0 | 0.0 | 0.00 | 0.00 | 0.00 | 99 | 1015.9 | |
| 20260507053747 | 57 | 0.0 | 0.0 | 0.00 | 0.00 | 0.00 | 99 | 1015.8 | |
| 20260507053249 | 51 | 0.0 | 0.0 | 0.00 | 0.00 | 0.00 | 99 | 1015.7 | |
| 20260507052735 | 45 | 0.0 | 0.0 | 0.00 | 0.00 | 0.00 | 99 | 1015.7 | |
| 20260507052229 | 42 | 0.0 | 0.0 | 0.00 | 0.00 | 0.00 | 99 | 1015.7 | |
| 20260507051722 | 42 | 0.0 | 0.0 | 0.00 | 0.00 | 0.00 | 99 | 1015.7 | |
| 20260507051217 | 41 | 0.0 | 0.0 | 0.00 | 0.00 | 0.00 | 99 | 1015.6 | |
| 20260507050711 | 41 | 0.0 | 0.0 | 0.00 | 0.00 | 0.00 | 99 | 1015.6 | |
| 20260507050213 | 41 | 0.0 | 0.0 | 0.00 | 0.00 | 0.00 | 99 | 1015.5 | |
| 20260507045657 | 41 | 0.0 | 0.0 | 0.00 | 0.00 | 0.00 | 99 | 1015.5 | |
| 20260507045151 | 41 | 0.0 | 0.0 | 0.00 | 0.00 | 0.00 | 99 | 1015.6 | |
| 20260507044645 | 41 | 0.0 | 0.0 | 0.00 | 0.00 | 0.00 | 99 | 1015.6 | |
| 20260507044139 | 42 | 0.0 | 0.0 | 0.00 | 0.00 | 0.00 | 99 | 1015.5 | |
| 20260507043633 | 42 | 0.0 | 0.0 | 0.00 | 0.00 | 0.00 | 99 | 1015.5 | |
| 20260507043136 | 42 | 0.0 | 0.0 | 0.00 | 0.00 | 0.00 | 99 | 1015.5 | |
| 20260507042621 | 42 | 0.0 | 0.0 | 0.00 | 0.00 | 0.00 | 99 | 1015.6 | |
| 20260507042116 | 42 | 0.0 | 0.0 | 0.00 | 0.00 | 0.00 | 99 | 1015.6 | |
| 20260507041610 | 42 | 0.0 | 0.0 | 0.00 | 0.00 | 0.00 | 99 | 1015.6 | |
| 20260507041104 | 42 | 0.0 | 0.0 | 0.00 | 0.00 | 0.00 | 99 | 1015.6 | |
| 20260507040558 | 42 | 0.0 | 0.0 | 0.00 | 0.00 | 0.00 | 99 | 1015.6 | |
| 20260507040100 | 42 | 0.0 | 0.0 | 0.00 | 0.00 | 0.00 | 99 | 1015.5 | |
| 20260507035545 | 42 | 0.0 | 0.0 | 0.00 | 0.00 | 0.00 | 99 | 1015.6 | |
| 20260507035039 | 42 | 0.0 | 0.0 | 0.00 | 0.00 | 0.00 | 99 | 1015.7 | |
| 20260507034533 | 42 | 0.0 | 0.0 | 0.00 | 0.00 | 0.00 | 99 | 1015.7 | |
| 20260507034028 | 42 | 0.0 | 0.0 | 0.00 | 0.00 | 0.00 | 99 | 1015.6 | |
| 20260507033522 | 42 | 0.0 | 0.0 | 0.00 | 0.00 | 0.00 | 99 | 1015.6 | |
| 20260507033025 | 43 | 0.0 | 0.0 | 0.00 | 0.00 | 0.00 | 99 | 1015.6 | |
| 20260507032510 | 43 | 0.0 | 0.0 | 0.00 | 0.00 | 0.00 | 99 | 1015.7 | |
| 20260507032004 | 43 | 0.0 | 0.0 | 0.00 | 0.00 | 0.00 | 99 | 1015.6 | |
| 20260507031458 | 43 | 0.0 | 0.0 | 0.00 | 0.00 | 0.00 | 99 | 1015.7 | |
| 20260507030954 | 43 | 0.0 | 0.0 | 0.00 | 0.00 | 0.00 | 99 | 1015.6 | |
| 20260507030446 | 43 | 0.0 | 0.0 | 0.00 | 0.00 | 0.00 | 99 | 1015.6 | |
| 20260507025949 | 43 | 0.0 | 0.0 | 0.00 | 0.00 | 0.00 | 99 | 1015.7 | |
| 20260507025433 | 43 | 0.0 | 0.0 | 0.00 | 0.00 | 0.00 | 99 | 1015.7 | |
| 20260507024927 | 43 | 0.0 | 0.0 | 0.00 | 0.00 | 0.00 | 99 | 1015.7 | |
| 20260507024421 | 43 | 0.0 | 0.0 | 0.00 | 0.00 | 0.00 | 99 | 1015.7 | |
| 20260507023915 | 43 | 0.0 | 0.0 | 0.00 | 0.00 | 0.00 | 99 | 1015.7 | |
| 20260507023409 | 44 | 0.0 | 0.0 | 0.00 | 0.00 | 0.00 | 99 | 1015.7 | |
| 20260507022912 | 44 | 0.0 | 0.0 | 0.00 | 0.00 | 0.00 | 99 | 1015.7 | |
| 20260507022358 | 44 | 0.0 | 0.0 | 0.00 | 0.00 | 0.00 | 99 | 1015.7 | |
| 20260507021851 | 44 | 0.0 | 0.0 | 0.00 | 0.00 | 0.00 | 99 | 1015.7 | |
| 20260507021345 | 44 | 0.0 | 0.0 | 0.00 | 0.00 | 0.00 | 99 | 1015.7 | |
| 20260507020840 | 44 | 0.0 | 0.0 | 0.00 | 0.00 | 0.00 | 99 | 1015.6 | |
| 20260507020334 | 44 | 0.0 | 0.0 | 0.00 | 0.00 | 0.00 | 99 | 1015.7 | |
| 20260507015835 | 44 | 0.0 | 0.0 | 0.00 | 0.00 | 0.00 | 99 | 1015.7 | |
| 20260507015321 | 44 | 0.0 | 0.0 | 0.00 | 0.00 | 0.00 | 99 | 1015.7 | |
| 20260507014815 | 44 | 0.0 | 0.0 | 0.00 | 0.00 | 0.00 | 99 | 1015.7 | |
| 20260507014309 | 44 | 0.0 | 0.0 | 0.00 | 0.00 | 0.00 | 99 | 1015.7 | |
| 20260507013803 | 44 | 0.0 | 0.0 | 0.00 | 0.00 | 0.00 | 99 | 1015.8 | |
| 20260507013257 | 44 | 0.0 | 0.0 | 0.00 | 0.00 | 0.00 | 99 | 1015.8 | |
| 20260507012800 | 44 | 0.0 | 0.0 | 0.00 | 0.00 | 0.00 | 99 | 1015.9 | |
| 20260507012245 | 45 | 0.0 | 0.0 | 0.00 | 0.00 | 0.00 | 99 | 1015.9 | |
| 20260507011739 | 45 | 0.0 | 0.0 | 0.00 | 0.00 | 0.00 | 99 | 1015.9 | |
| 20260507011233 | 45 | 0.0 | 0.0 | 0.00 | 0.00 | 0.00 | 99 | 1015.9 | |
| 20260507010727 | 45 | 0.0 | 0.0 | 0.00 | 0.00 | 0.00 | 99 | 1015.9 | |
| 20260507010221 | 45 | 0.0 | 0.0 | 0.00 | 0.00 | 0.00 | 99 | 1016.0 | |
| 20260507005723 | 45 | 0.0 | 0.0 | 0.00 | 0.00 | 0.00 | 99 | 1016.0 | |
| 20260507005208 | 46 | 0.0 | 0.0 | 0.00 | 0.00 | 0.00 | 99 | 1016.0 | |
| 20260507004702 | 45 | 0.0 | 0.0 | 0.00 | 0.00 | 0.00 | 99 | 1016.0 | |
| 20260507004156 | 46 | 0.0 | 0.0 | 0.00 | 0.00 | 0.00 | 99 | 1016.0 | |
| 20260507003650 | 46 | 0.0 | 0.0 | 0.00 | 0.00 | 0.00 | 99 | 1016.0 | |
| 20260507003144 | 46 | 0.0 | 0.0 | 0.00 | 0.00 | 0.00 | 99 | 1016.1 | |
| 20260507002646 | 46 | 0.0 | 0.0 | 0.00 | 0.00 | 0.00 | 99 | 1016.2 | |
| 20260507002132 | 46 | 0.0 | 0.0 | 0.00 | 0.00 | 0.00 | 99 | 1016.3 | |
| 20260507001626 | 46 | 0.0 | 0.0 | 0.00 | 0.00 | 0.00 | 99 | 1016.3 | |
| 20260507001120 | 46 | 0.0 | 0.0 | 0.00 | 0.00 | 0.00 | 99 | 1016.3 | |
| 20260507000614 | 46 | 0.0 | 0.0 | 0.00 | 0.00 | 0.00 | 99 | 1016.4 | |
| 20260507000108 | 46 | 0.0 | 0.0 | 0.00 | 0.00 | 0.00 | 99 | 1016.5 | |
| 20260506235612 | 46 | 0.0 | 0.0 | 0.00 | 0.00 | 0.91 | 99 | 1016.5 | |
| 20260506235058 | 47 | 0.0 | 0.0 | 0.00 | 0.00 | 0.91 | 99 | 1016.5 | |
| 20260506234552 | 47 | 0.0 | 0.0 | 0.00 | 0.00 | 0.91 | 99 | 1016.5 | |
| 20260506234046 | 47 | 0.0 | 0.0 | 0.00 | 0.00 | 0.91 | 99 | 1016.6 | |
| 20260506233540 | 47 | 0.0 | 0.0 | 0.00 | 0.00 | 0.91 | 99 | 1016.5 | |
| 20260506233034 | 47 | 0.0 | 0.0 | 0.00 | 0.00 | 0.91 | 99 | 1016.5 | |
| 20260506232536 | 47 | 0.0 | 0.0 | 0.00 | 0.00 | 0.91 | 99 | 1016.5 | |
| 20260506232021 | 47 | 0.0 | 0.0 | 0.00 | 0.00 | 0.91 | 99 | 1016.5 | |
| 20260506231515 | 48 | 0.0 | 0.0 | 0.00 | 0.00 | 0.91 | 99 | 1016.5 | |
| 20260506231009 | 48 | 0.0 | 0.0 | 0.00 | 0.00 | 0.91 | 99 | 1016.5 | |
| 20260506230503 | 48 | 0.0 | 0.0 | 0.00 | 0.00 | 0.91 | 99 | 1016.6 | |
| 20260506225957 | 48 | 0.0 | 0.0 | 0.00 | 0.00 | 0.91 | 99 | 1016.6 | |
| 20260506225501 | 48 | 0.0 | 0.0 | 0.00 | 0.00 | 0.91 | 99 | 1016.6 | |
| 20260506224946 | 48 | 0.0 | 0.0 | 0.00 | 0.00 | 0.91 | 99 | 1016.6 | |
| 20260506224440 | 48 | 0.0 | 0.0 | 0.00 | 0.00 | 0.91 | 99 | 1016.6 | |
| 20260506223934 | 48 | 0.0 | 0.0 | 0.00 | 0.00 | 0.91 | 99 | 1016.6 | |
| 20260506223428 | 49 | 0.0 | 0.0 | 0.00 | 0.00 | 0.91 | 99 | 1016.7 | |
| 20260506222922 | 49 | 0.0 | 0.0 | 0.00 | 0.00 | 0.91 | 99 | 1016.6 | |
| 20260506222424 | 49 | 0.0 | 0.0 | 0.00 | 0.00 | 0.91 | 99 | 1016.6 | |
| 20260506221910 | 49 | 0.0 | 0.0 | 0.00 | 0.00 | 0.91 | 99 | 1016.6 | |
| 20260506221404 | 49 | 0.0 | 0.0 | 0.00 | 0.00 | 0.91 | 99 | 1016.7 | |
| 20260506220858 | 49 | 0.0 | 0.0 | 0.00 | 0.00 | 0.91 | 99 | 1016.7 | |
| 20260506220352 | 49 | 0.0 | 0.0 | 0.00 | 0.00 | 0.91 | 99 | 1016.7 | |
| 20260506215846 | 50 | 0.0 | 0.0 | 0.00 | 0.00 | 0.91 | 99 | 1016.7 | |
| 20260506215347 | 50 | 0.0 | 0.0 | 0.00 | 0.00 | 0.91 | 99 | 1016.7 | |
| 20260506214833 | 50 | 0.0 | 0.0 | 0.00 | 0.00 | 0.91 | 99 | 1016.7 | |
| 20260506214327 | 50 | 0.0 | 0.0 | 0.00 | 0.00 | 0.91 | 99 | 1016.7 | |
| 20260506213823 | 50 | 0.0 | 0.0 | 0.00 | 0.00 | 0.91 | 99 | 1016.8 | |
| 20260506213314 | 50 | 0.0 | 0.0 | 0.00 | 0.00 | 0.91 | 99 | 1016.8 | |
| 20260506212808 | 50 | 0.0 | 0.0 | 0.00 | 0.00 | 0.91 | 99 | 1016.8 | |
| 20260506212311 | 50 | 0.0 | 0.0 | 0.00 | 0.00 | 0.91 | 99 | 1016.8 | |
| 20260506211756 | 51 | 0.0 | 0.0 | 0.00 | 0.00 | 0.91 | 99 | 1016.8 | |
| 20260506211250 | 51 | 0.0 | 0.0 | 0.00 | 0.00 | 0.91 | 99 | 1016.8 | |
| 20260506210744 | 51 | 0.0 | 0.9 | 0.00 | 0.00 | 0.91 | 99 | 1016.8 | |
| 20260506210238 | 51 | 0.0 | 0.9 | 0.00 | 0.00 | 0.91 | 99 | 1016.8 | |
| 20260506205731 | 52 | 5.2 | 14.8 | 0.00 | 0.00 | 0.91 | 99 | 1016.8 | |
| 20260506205234 | 52 | 0.0 | 0.0 | 0.00 | 0.00 | 0.91 | 99 | 1016.8 | |
| 20260506204719 | 52 | 7.8 | 45.2 | 0.00 | 0.00 | 0.91 | 99 | 1016.8 | |
| 20260506204214 | 53 | 0.0 | 0.0 | 0.00 | 0.00 | 0.91 | 99 | 1016.8 | |
| 20260506203707 | 53 | 0.0 | 0.0 | 0.00 | 0.00 | 0.91 | 99 | 1016.8 | |
| 20260506203201 | 53 | 0.0 | 0.0 | 0.00 | 0.00 | 0.91 | 99 | 1016.8 | |
| 20260506202656 | 53 | 0.0 | 0.0 | 0.00 | 0.00 | 0.91 | 99 | 1016.7 | |
| 20260506202158 | 54 | 0.0 | 0.0 | 0.00 | 0.00 | 0.91 | 99 | 1016.7 | |
| 20260506201643 | 54 | 0.0 | 0.0 | 0.00 | 0.00 | 0.91 | 99 | 1016.6 | |
| 20260506201137 | 55 | 0.0 | 0.0 | 0.00 | 0.00 | 0.91 | 99 | 1016.5 | |
| 20260506200631 | 55 | 0.0 | 0.0 | 0.00 | 0.00 | 0.91 | 99 | 1016.5 | |
| 20260506200125 | 56 | 0.0 | 0.0 | 0.00 | 0.00 | 0.91 | 99 | 1016.5 | |
| 20260506195618 | 56 | 0.0 | 0.0 | 0.00 | 0.00 | 0.91 | 99 | 1016.5 | |
| 20260506195121 | 56 | 0.0 | 0.0 | 0.00 | 0.00 | 0.91 | 99 | 1016.4 | |
| 20260506194606 | 56 | 0.0 | 0.0 | 0.00 | 0.00 | 0.91 | 99 | 1016.2 | |
| 20260506194100 | 56 | 0.0 | 0.0 | 0.00 | 0.00 | 0.91 | 99 | 1016.1 | |
| 20260506193554 | 56 | 0.0 | 0.0 | 0.00 | 0.00 | 0.91 | 99 | 1016.1 | |
| 20260506193049 | 57 | 0.9 | 2.6 | 0.00 | 0.00 | 0.91 | 99 | 1016.1 | |
| 20260506192542 | 57 | 2.6 | 7.0 | 0.00 | 0.00 | 0.91 | 99 | 1016.0 | |
| 20260506192045 | 57 | 0.0 | 0.0 | 0.00 | 0.00 | 0.91 | 99 | 1016.0 | |
| 20260506191531 | 57 | 0.0 | 0.0 | 0.00 | 0.00 | 0.91 | 99 | 1015.9 | |
| 20260506191025 | 58 | 0.0 | 0.0 | 0.00 | 0.00 | 0.91 | 99 | 1015.9 | |
| 20260506190519 | 58 | 0.0 | 0.0 | 0.00 | 0.00 | 0.91 | 99 | 1015.9 | |
| 20260506190013 | 58 | 0.0 | 0.0 | 0.00 | 0.00 | 0.91 | 99 | 1015.9 | |
| 20260506185506 | 58 | 0.0 | 0.0 | 0.00 | 0.00 | 0.91 | 99 | 1015.8 | |
| 20260506185008 | 59 | 0.0 | 0.0 | 0.00 | 0.00 | 0.91 | 99 | 1015.8 | |
| 20260506184453 | 59 | 0.0 | 0.0 | 0.00 | 0.00 | 0.91 | 99 | 1015.8 | |
| 20260506183947 | 59 | 0.0 | 0.0 | 0.00 | 0.00 | 0.91 | 99 | 1015.8 | |
| 20260506183441 | 59 | 0.0 | 0.0 | 0.00 | 0.00 | 0.91 | 99 | 1015.8 | |
| 20260506182935 | 59 | 0.0 | 0.0 | 0.00 | 0.00 | 0.91 | 99 | 1015.8 | |
| 20260506182429 | 60 | 0.0 | 0.0 | 0.00 | 0.00 | 0.91 | 99 | 1015.8 | |
| 20260506181931 | 60 | 0.0 | 0.0 | 0.00 | 0.00 | 0.91 | 99 | 1015.7 | |
| 20260506181417 | 60 | 0.0 | 0.0 | 0.00 | 0.00 | 0.91 | 99 | 1015.7 | |
| 20260506180911 | 60 | 0.9 | 1.7 | 0.00 | 0.00 | 0.91 | 99 | 1015.6 | |
| 20260506180405 | 60 | 0.0 | 0.9 | 0.00 | 0.00 | 0.91 | 99 | 1015.7 | |
| 20260506175859 | 60 | 0.0 | 0.0 | 0.00 | 0.00 | 0.91 | 99 | 1015.6 | |
| 20260506175352 | 61 | 0.0 | 0.0 | 0.00 | 0.00 | 0.91 | 99 | 1015.5 | |
| 20260506174854 | 61 | 0.9 | 1.7 | 0.00 | 0.00 | 0.91 | 99 | 1015.5 | |
| 20260506174339 | 63 | 0.0 | 0.9 | 0.00 | 0.00 | 0.91 | 99 | 1015.5 | |
| 20260506173834 | 62 | 0.0 | 0.9 | 0.00 | 0.00 | 0.91 | 99 | 1015.5 | |
| 20260506173327 | 62 | 0.9 | 2.6 | 0.00 | 0.00 | 0.91 | 99 | 1015.5 | |
| 20260506172822 | 62 | 0.9 | 1.7 | 0.00 | 0.00 | 0.91 | 99 | 1015.6 | |
| 20260506172316 | 64 | 0.0 | 0.9 | 0.00 | 0.00 | 0.91 | 99 | 1015.5 | |
| 20260506171818 | 64 | 0.9 | 2.6 | 0.00 | 0.00 | 0.91 | 99 | 1015.6 | |
| 20260506171303 | 64 | 1.7 | 4.3 | 0.00 | 0.00 | 0.91 | 99 | 1015.6 | |
| 20260506170757 | 63 | 0.0 | 0.9 | 0.00 | 0.00 | 0.91 | 99 | 1015.5 | |
| 20260506170251 | 65 | 0.9 | 3.5 | 0.00 | 0.00 | 0.91 | 99 | 1015.5 | |
| 20260506165745 | 64 | 0.9 | 2.6 | 0.00 | 0.00 | 0.91 | 99 | 1015.5 | |
| 20260506165239 | 64 | 1.7 | 4.3 | 0.00 | 0.00 | 0.91 | 99 | 1015.5 | |
| 20260506164741 | 63 | 1.7 | 4.3 | 0.00 | 0.00 | 0.91 | 99 | 1015.5 | |
| 20260506164226 | 65 | 0.9 | 2.6 | 0.00 | 0.00 | 0.91 | 99 | 1015.5 | |
| 20260506163720 | 66 | 0.9 | 2.6 | 0.00 | 0.00 | 0.91 | 99 | 1015.4 | |
| 20260506163214 | 66 | 0.9 | 2.6 | 0.00 | 0.00 | 0.91 | 99 | 1015.4 | |
| 20260506162708 | 66 | 0.9 | 3.5 | 0.00 | 0.00 | 0.91 | 99 | 1015.3 | |
| 20260506162202 | 66 | 0.9 | 1.7 | 0.00 | 0.00 | 0.91 | 99 | 1015.3 | |
| 20260506161704 | 65 | 0.9 | 2.6 | 0.00 | 0.00 | 0.91 | 99 | 1015.4 | |
| 20260506161149 | 64 | 0.9 | 2.6 | 0.00 | 0.00 | 0.91 | 99 | 1015.4 | |
| 20260506160643 | 65 | 1.7 | 4.3 | 0.00 | 0.00 | 0.91 | 99 | 1015.4 | |
| 20260506160137 | 65 | 0.9 | 3.5 | 0.00 | 0.00 | 0.91 | 99 | 1015.4 | |
| 20260506155631 | 65 | 0.9 | 3.5 | 0.00 | 0.00 | 0.91 | 99 | 1015.4 | |
| 20260506155125 | 65 | 1.7 | 4.3 | 0.00 | 0.00 | 0.91 | 99 | 1015.4 | |
| 20260506154627 | 65 | 1.7 | 5.2 | 0.00 | 0.00 | 0.91 | 99 | 1015.4 | |
| 20260506154113 | 64 | 1.7 | 5.2 | 0.00 | 0.00 | 0.91 | 99 | 1015.4 | |
| 20260506153607 | 64 | 1.7 | 6.1 | 0.00 | 0.00 | 0.91 | 99 | 1015.5 | |
| 20260506153101 | 65 | 1.7 | 5.2 | 0.00 | 0.00 | 0.91 | 99 | 1015.5 | |
| 20260506152555 | 67 | 1.7 | 5.2 | 0.00 | 0.00 | 0.91 | 99 | 1015.6 | |
| 20260506152048 | 66 | 1.7 | 5.2 | 0.00 | 0.00 | 0.91 | 99 | 1015.5 | |
| 20260506151551 | 64 | 1.7 | 4.3 | 0.00 | 0.00 | 0.91 | 99 | 1015.5 | |
| 20260506151036 | 64 | 0.9 | 3.5 | 0.00 | 0.00 | 0.91 | 99 | 1015.6 | |
| 20260506150530 | 64 | 1.7 | 5.2 | 0.00 | 0.00 | 0.91 | 99 | 1015.6 | |
| 20260506150024 | 65 | 1.7 | 4.3 | 0.00 | 0.00 | 0.91 | 99 | 1015.6 | |
| 20260506145517 | 66 | 1.7 | 6.1 | 0.00 | 0.00 | 0.91 | 99 | 1015.7 | |
| 20260506145011 | 65 | 0.9 | 2.6 | 0.00 | 0.00 | 0.91 | 99 | 1015.7 | |
| 20260506144513 | 64 | 1.7 | 4.3 | 0.00 | 0.00 | 0.91 | 99 | 1015.6 | |
| 20260506143959 | 64 | 2.6 | 7.0 | 0.00 | 0.00 | 0.91 | 99 | 1015.7 | |
| 20260506143453 | 65 | 1.7 | 5.2 | 0.00 | 0.00 | 0.91 | 99 | 1015.7 | |
| 20260506142947 | 65 | 0.9 | 2.6 | 0.00 | 0.00 | 0.91 | 99 | 1015.7 | |
| 20260506142441 | 64 | 0.9 | 2.6 | 0.00 | 0.00 | 0.91 | 99 | 1015.7 | |
| 20260506141935 | 64 | 1.7 | 4.3 | 0.00 | 0.00 | 0.91 | 99 | 1015.6 | |
| 20260506141437 | 64 | 0.9 | 3.5 | 0.00 | 0.00 | 0.91 | 99 | 1015.6 | |
| 20260506140922 | 63 | 1.7 | 5.2 | 0.00 | 0.00 | 0.91 | 99 | 1015.7 | |
| 20260506140416 | 64 | 1.7 | 6.1 | 0.00 | 0.00 | 0.91 | 99 | 1015.7 | |
| 20260506135911 | 65 | 0.9 | 3.5 | 0.00 | 0.00 | 0.91 | 99 | 1015.6 | |
| 20260506135404 | 66 | 0.9 | 3.5 | 0.00 | 0.00 | 0.91 | 99 | 1015.6 | |
| 20260506134858 | 66 | 1.7 | 4.3 | 0.00 | 0.00 | 0.91 | 99 | 1015.6 | |
| 20260506134400 | 65 | 1.7 | 6.1 | 0.00 | 0.00 | 0.91 | 99 | 1015.6 | |
| 20260506133846 | 64 | 1.7 | 4.3 | 0.00 | 0.00 | 0.91 | 99 | 1015.6 | |
| 20260506133340 | 64 | 2.6 | 7.0 | 0.00 | 0.00 | 0.91 | 99 | 1015.5 | |
| 20260506132835 | 64 | 1.7 | 4.3 | 0.00 | 0.00 | 0.91 | 99 | 1015.5 | |
| 20260506132329 | 64 | 1.7 | 4.3 | 0.00 | 0.00 | 0.91 | 99 | 1015.5 | |
| 20260506131823 | 65 | 1.7 | 6.1 | 0.00 | 0.00 | 0.91 | 99 | 1015.4 | |
| 20260506131326 | 66 | 1.7 | 6.1 | 0.00 | 0.00 | 0.91 | 99 | 1015.3 | |
| 20260506130812 | 66 | 1.7 | 5.2 | 0.00 | 0.00 | 0.91 | 99 | 1015.3 | |
| 20260506130306 | 66 | 1.7 | 5.2 | 0.00 | 0.00 | 0.91 | 99 | 1015.2 | |
| 20260506125759 | 64 | 1.7 | 4.3 | 0.00 | 0.00 | 0.91 | 99 | 1015.2 | |
| 20260506125253 | 63 | 0.0 | 0.9 | 0.00 | 0.00 | 0.91 | 99 | 1015.2 | |
| 20260506124747 | 62 | 0.9 | 1.7 | 0.00 | 0.00 | 0.91 | 99 | 1015.2 | |
| 20260506124250 | 62 | 0.9 | 3.5 | 0.00 | 0.00 | 0.91 | 99 | 1015.2 | |
| 20260506123735 | 62 | 0.9 | 2.6 | 0.00 | 0.00 | 0.91 | 99 | 1015.2 | |
| 20260506123229 | 61 | 0.9 | 3.5 | 0.00 | 0.00 | 0.91 | 99 | 1015.2 | |
| 20260506122723 | 61 | 1.7 | 5.2 | 0.00 | 0.00 | 0.91 | 99 | 1015.2 | |
| 20260506122217 | 61 | 1.7 | 4.3 | 0.00 | 0.00 | 0.91 | 99 | 1015.1 | |
| 20260506121711 | 62 | 1.7 | 4.3 | 0.00 | 0.00 | 0.91 | 99 | 1015.1 | |
| 20260506121213 | 65 | 1.7 | 6.1 | 0.00 | 0.00 | 0.91 | 99 | 1015.1 | |
| 20260506120658 | 65 | 0.9 | 3.5 | 0.00 | 0.00 | 0.91 | 99 | 1015.0 | |
| 20260506120152 | 64 | 1.7 | 5.2 | 0.00 | 0.00 | 0.91 | 99 | 1014.9 | |
| 20260506115645 | 63 | 0.9 | 2.6 | 0.00 | 0.00 | 0.91 | 99 | 1014.9 | |
| 20260506115139 | 62 | 0.9 | 1.7 | 0.00 | 0.00 | 0.91 | 99 | 1014.9 | |
| 20260506114634 | 61 | 1.7 | 4.3 | 0.00 | 0.00 | 0.91 | 99 | 1014.9 | |
| 20260506114136 | 62 | 1.7 | 6.1 | 0.00 | 0.00 | 0.91 | 99 | 1014.9 | |
| 20260506113621 | 63 | 0.9 | 2.6 | 0.00 | 0.00 | 0.91 | 99 | 1015.0 | |
| 20260506113115 | 63 | 1.7 | 4.3 | 0.00 | 0.00 | 0.91 | 99 | 1015.0 | |
| 20260506112609 | 65 | 0.9 | 3.5 | 0.00 | 0.00 | 0.91 | 99 | 1015.0 | |
| 20260506112104 | 68 | 1.7 | 4.3 | 0.00 | 0.00 | 0.91 | 99 | 1014.9 | |
| 20260506111558 | 71 | 0.9 | 3.5 | 0.00 | 0.00 | 0.91 | 99 | 1014.9 | |
| 20260506111100 | 72 | 1.7 | 6.1 | 0.00 | 0.00 | 0.91 | 99 | 1014.9 | |
| 20260506110545 | 71 | 1.7 | 4.3 | 0.00 | 0.00 | 0.91 | 99 | 1014.9 | |
| 20260506110040 | 69 | 0.9 | 2.6 | 0.00 | 0.00 | 0.91 | 99 | 1014.8 | |
| 20260506105533 | 67 | 0.9 | 2.6 | 0.02 | 0.00 | 0.91 | 99 | 1014.8 | |
| 20260506105027 | 66 | 0.9 | 1.7 | 0.02 | 0.00 | 0.91 | 99 | 1014.8 | |
| 20260506104521 | 65 | 0.9 | 3.5 | 0.02 | 0.00 | 0.91 | 99 | 1014.8 | |
| 20260506104023 | 61 | 0.9 | 1.7 | 0.02 | 0.00 | 0.91 | 99 | 1014.8 | |
| 20260506103509 | 59 | 0.0 | 0.9 | 0.02 | 0.00 | 0.91 | 99 | 1014.8 | |
| 20260506103003 | 59 | 0.9 | 1.7 | 0.02 | 0.00 | 0.91 | 99 | 1014.8 | |
| 20260506102457 | 59 | 0.9 | 3.5 | 0.02 | 0.00 | 0.91 | 99 | 1014.9 | |
| 20260506101951 | 58 | 0.9 | 1.7 | 0.02 | 0.00 | 0.91 | 99 | 1014.9 | |
| 20260506101445 | 56 | 0.0 | 0.9 | 0.02 | 0.00 | 0.91 | 99 | 1014.9 | |
| 20260506100948 | 55 | 0.0 | 0.9 | 0.02 | 0.00 | 0.91 | 99 | 1014.9 | |
| 20260506100433 | 56 | 1.7 | 4.3 | 0.02 | 0.00 | 0.91 | 99 | 1014.9 | |
| 20260506095927 | 55 | 1.7 | 5.2 | 0.00 | 0.00 | 0.89 | 99 | 1014.9 | |
| 20260506095420 | 55 | 1.7 | 5.2 | 0.18 | 0.00 | 0.87 | 99 | 1014.8 | |
| 20260506094914 | 55 | 1.7 | 4.3 | 0.18 | 0.00 | 0.87 | 99 | 1014.8 | |
| 20260506094409 | 55 | 0.9 | 3.5 | 0.18 | 0.00 | 0.87 | 99 | 1014.6 | |
| 20260506093357 | 55 | 0.9 | 1.7 | 0.16 | 0.00 | 0.84 | 99 | 1014.5 | |
| 20260506092851 | 55 | 0.9 | 3.5 | 0.13 | 0.00 | 0.82 | 99 | 1014.4 | |
| 20260506092345 | 55 | 1.7 | 4.3 | 0.11 | 0.00 | 0.80 | 99 | 1014.5 | |
| 20260506091839 | 55 | 0.9 | 3.5 | 0.06 | 0.00 | 0.75 | 99 | 1014.3 | |
| 20260506091333 | 55 | 0.9 | 3.5 | 0.00 | 0.00 | 0.68 | 99 | 1014.3 | |
| 20260506090835 | 55 | 0.9 | 3.5 | 0.00 | 0.00 | 0.68 | 99 | 1014.3 | |
| 20260506090320 | 55 | 0.9 | 3.5 | 0.00 | 0.00 | 0.68 | 99 | 1014.3 | |
| 20260506085813 | 54 | 0.9 | 3.5 | 0.13 | 0.00 | 0.68 | 99 | 1014.2 | |
| 20260506085307 | 54 | 0.9 | 2.6 | 0.11 | 0.00 | 0.66 | 99 | 1014.2 | |
| 20260506084802 | 55 | 0.9 | 2.6 | 0.11 | 0.00 | 0.66 | 99 | 1014.2 | |
| 20260506084256 | 55 | 0.9 | 2.6 | 0.11 | 0.00 | 0.66 | 99 | 1014.2 | |
| 20260506083758 | 55 | 0.9 | 3.5 | 0.09 | 0.00 | 0.64 | 99 | 1014.1 | |
| 20260506083243 | 56 | 1.7 | 6.1 | 0.06 | 0.00 | 0.61 | 99 | 1014.0 | |
| 20260506082737 | 57 | 0.9 | 1.7 | 0.02 | 0.00 | 0.57 | 99 | 1014.0 | |
| 20260506082232 | 57 | 0.9 | 2.6 | 0.00 | 0.00 | 0.54 | 99 | 1014.0 | |
| 20260506081726 | 56 | 0.9 | 2.6 | 0.00 | 0.00 | 0.54 | 99 | 1014.1 | |
| 20260506081220 | 56 | 0.9 | 1.7 | 0.00 | 0.00 | 0.54 | 99 | 1014.1 | |
| 20260506080723 | 55 | 0.9 | 1.7 | 0.00 | 0.00 | 0.54 | 99 | 1014.1 | |
| 20260506080208 | 54 | 0.9 | 1.7 | 0.00 | 0.00 | 0.54 | 99 | 1014.1 |